Weather in Tula

Russia / Tula Oblast     54°11′35″N   37°37′02″E
temp.,
°C
wind,
m/s
gust,
m/s
humid.,
%
clouds,
%
prec.,
mm/h
press.,
hPa
HPBL,
m
6 may, thu
thu600:00+9ssw51480100 0.0 1009344
03:00+8ssw51386100 0.0 1009313
06:00+10s51483100 0.1 1008399
09:00+13ssw81566100 0.1 10071149
12:00+13ssw101869100 0.5 10071884
15:00+15ssw11175794 0.8 10061715
18:00+9ssw81588100 1.1 1007890
21:00+8wsw4990100 1.7 1010507
7 may, fri
fri700:00+6sw4994100 0.0 1010302
03:00+5wsw3994100 0.0 1011318
06:00+5wsw399046 0.0 1013289
09:00+9wsw47605 0.0 1014822
12:00+13wsw46414 0.0 10141894
15:00+14sw684079 0.0 10142246
18:00+13s5852100 0.0 1013959
21:00+10s41160100 0.0 1014316
8 may, sat
sat800:00+9sse5155899 0.0 1013442
03:00+9sse71655100 0.0 1011569
06:00+9s71562100 0.0 1009824
09:00+9sse81692100 3.3 1006963
12:00+10s71495100 3.3 1004790
15:00+10wsw61090100 6.0 1005662
18:00+9wsw81277100 0.6 1005971
21:00+5wsw71181100 0.6 1007996
9 may, sun
sun900:00+4w71288100 0.1 10091048
03:00+5w61077100 0.1 10111079
06:00+5w597173 0.0 1013868
09:00+4wnw5875100 0.0 1016924
12:00+10nw684953 0.0 10161771
15:00+12nw6843100 0.0 10182389
18:00+11nw685273 0.0 10201227
21:00+6nnw38650 0.0 1023150
10 may, mon
mon1000:00+4nnw39670 0.0 1025161
03:00+3n35710 0.0 102788
06:00+4n26730 0.0 1029126
09:00+10n46550 0.0 1029621
12:00+13ne56432 0.0 10291513
15:00+14nne56445 0.0 10281275
18:00+13ne47524 0.0 1028713
21:00+8ne35668 0.0 102868